Location: Sinnemahoning State Park
(41.4031°N, 78.0230°W)
Time: 14:22:59
(UTC-05:00)

Daily predictions for brighter satellites

Satellite Brightness Start Highest point End
(mag) Time Altitude Azimuth Time Altitude Azimuth Time Altitude Azimuth
Cosmos 2233 Rocket 4.0 18:11:29 10° N 18:17:47 73° E 18:24:00 10° SSE
EO 1 Del DPAF 3.9 18:16:45 10° NNE 18:20:17 34° E 18:23:46 10° SSE
Iridium 2 4.5 18:18:39 10° NNW 18:22:26 57° W 18:26:10 10° S
Shenzhou-11 Module 4.5 18:21:23 10° W 18:23:41 20° SSW 18:25:59 10° SSE
Cosmos 405 3.0 18:24:31 10° S 18:27:55 54° E 18:31:22 10° NNE
Cosmos 1378 Rocket 4.5 18:24:33 10° NNE 18:28:20 27° ENE 18:32:07 10° SE
Cosmos 1624 Rocket 4.5 18:23:38 10° NNW 18:28:50 67° WSW 18:33:58 10° S
Landsat 4 3.7 18:27:29 10° NNE 18:31:12 60° ESE 18:34:55 10° S
NOAA 12 4.1 18:29:56 10° SSE 18:35:14 84° ENE 18:40:35 10° NNW
FengYun 1-2 T 4.5 18:30:07 10° SE 18:35:20 46° ENE 18:40:33 10° N
Cosmos 1464 Rocket 4.3 18:29:48 10° N 18:35:37 42° ENE 18:41:23 10° SSE
Cosmos 2219 Rocket 4.3 18:37:34 10° NW 18:42:31 32° WSW 18:47:27 10° SSW
COSMO-SKYMED 1 3.3 18:38:58 10° N 18:43:14 57° WNW 18:47:28 10° SSW
DMSP B5D1-3 4.5 18:38:54 10° NNE 18:44:03 77° ESE 18:49:11 10° S
Okean 2 Rocket 4.4 18:50:18 10° SE 18:53:17 18° E 18:56:16 10° NE
USA 215 3.5 18:50:14 10° ENE 18:56:33 49° SE 19:02:50 10° SSW
Cosmos 468 4.5 18:51:39 10° S 18:56:50 62° ESE 19:02:01 10° NNE
SeaSat 1 3.1 18:53:05 11° ESE 18:57:15 35° NE 19:01:43 10° N
Cosmos 2227 Rocket 3.0 18:51:48 10° SW 18:57:19 53° WNW 19:02:51 10° NNE
Cosmos 2237 Rocket 3.3 18:52:57 10° NW 18:58:20 48° WSW 19:03:41 10° S
SJ-6B 3.2 18:55:57 10° SE 18:59:26 37° ENE 19:02:59 10° N
Envisat 3.6 18:55:12 10° SE 18:59:44 34° ENE 19:04:18 10° N
Thor Agena Rocket 4.0 18:56:14 10° NNE 19:00:56 37° E 19:05:35 10° SSE
SL-16 R/B 2.1 18:56:43 10° NNW 19:02:25 76° ENE 19:08:04 10° SSE
Tiangong 2 2.2 19:00:44 10° W 19:03:45 39° SSW 19:05:47 17° SE
Cosmos 44 Rocket 3.3 19:00:59 10° NNW 19:06:01 72° ENE 19:11:09 10° SE
FREGAT/IRIS 2.4 19:03:21 10° SSE 19:06:18 79° E 19:09:16 10° N
USA 32 4.1 19:01:59 10° SSE 19:07:04 54° E 19:12:10 10° NNE
NOSS 3-2 (C) 4.3 19:01:52 10° WSW 19:07:39 50° NW 19:14:07 10° NNE
Cosmos 1674 Rocket 4.0 19:03:23 10° NNW 19:07:41 64° W 19:11:57 10° S
Cosmos 1269 Rocket 4.3 19:03:17 10° S 19:08:16 44° ESE 19:13:17 10° NNE
H-2A R/B 3.1 19:05:11 10° S 19:09:05 68° W 19:12:58 10° NNW
Cosmos 2034 Rocket 4.0 19:04:47 10° N 19:11:06 60° E 19:17:23 10° SSE
Cosmos 2297 Rocket 3.2 19:05:51 10° SW 19:11:17 48° WNW 19:16:46 10° NNE
HJ-1C 3.4 19:08:00 10° SSE 19:11:22 60° ENE 19:14:45 10° N
Meteor 1-14 Rocket 4.4 19:06:15 10° SSW 19:12:02 82° W 19:17:59 10° N
Cosmos 1891 Rocket 4.4 19:06:50 10° N 19:13:04 74° E 19:19:09 10° SSE
Okean 1 3.3 19:09:31 10° N 19:13:27 57° E 19:17:21 10° SSE
Okean 3 3.9 19:11:20 10° NNW 19:15:28 63° W 19:19:36 10° S
Cosmos 1908 Rocket 3.6 19:11:12 10° S 19:15:41 88° W 19:20:10 10° N
Meteor 1-20 Rocket 4.3 19:13:11 10° S 19:18:53 85° W 19:24:42 10° N
Cosmos 1633 3.1 19:15:50 10° SSW 19:19:20 59° W 19:22:53 10° N
Cosmos 921 Rocket 3.1 19:15:43 10° N 19:20:13 60° ENE 19:23:42 16° SSE
Cosmos 1603 4.2 19:15:32 10° N 19:20:45 37° ENE 19:22:38 29° E
ERS-2 2.6 19:18:25 10° S 19:22:04 64° WSW 19:25:44 10° NNW
CZ-2D R/B 3.1 19:22:36 10° SSE 19:26:23 67° ENE 19:30:16 10° N
Cosmos 1812 4.5 19:23:35 10° NNW 19:27:07 34° W 19:30:38 10° SSW
USA 267 4.0 19:27:10 25° ENE 19:30:03 36° NNE 19:35:52 10° NW
Resurs 1-3 4.1 19:30:55 39° ENE 19:30:55 39° ENE 19:34:51 10° N
CENTAUR R/B 2.6 19:26:40 10° SW 19:32:39 76° NW 19:39:34 10° NNE
CZ-4C R/B 3.8 19:29:49 10° NNW 19:35:49 29° NE 19:37:37 27° ENE
Cosmos 44 4.4 19:32:05 10° NW 19:36:57 48° WSW 19:42:00 10° S
SL-8 R/B 4.1 19:34:01 10° WSW 19:38:43 58° NNW 19:40:30 35° NE
Cosmos 1602 3.5 19:35:10 10° S 19:39:04 78° E 19:42:58 10° N
Resurs 01 Rocket 1.8 19:42:38 51° ENE 19:42:38 51° ENE 19:46:40 10° N
Cosmos 1975 Rocket 3.0 19:38:13 10° N 19:42:40 87° ENE 19:46:31 14° S
Cosmos 1331 Rocket 4.2 19:41:16 10° N 19:46:24 46° ENE 19:46:26 46° ENE
Spot 2 Rocket 3.6 19:49:48 51° ENE 19:49:48 51° ENE 19:54:34 10° N
Meteor 1-19 Rocket 4.0 19:44:53 10° N 19:50:27 81° E 19:54:50 17° SSE
Iridium 4 Rocket 4.5 19:47:40 10° NNW 19:52:15 42° W 19:56:28 10° SSW
Geosat 3.9 19:51:11 46° NE 19:52:34 67° ESE 19:57:33 10° SSW
Meteor 1-11 Rocket 3.6 19:48:14 10° S 19:53:42 63° E 19:59:19 10° NNE
Meteor 2-4 Rocket 3.7 19:48:07 10° N 19:53:53 60° ENE 19:54:53 52° ESE
Cosmos 1437 Rocket 3.5 19:50:00 10° SSW 19:53:57 55° WNW 19:58:00 10° N
Cosmos 2227 4.1 19:53:43 10° SSW 19:59:27 87° ESE 20:03:13 23° NNE
Gbstr 26 Del rocket 4.1 19:56:44 10° SW 19:58:45 30° SSW 19:58:45 30° SSW
USA 186 4.3 20:03:05 17° NNW 20:03:05 17° NNW 20:03:59 10° NNW
COSMOS 2455 3.3 19:55:13 10° S 19:59:33 41° SSE 19:59:33 41° SSE
Cosmos 1939 Rocket 4.1 20:05:46 35° N 20:05:46 35° N 20:08:14 10° N
Tsikada Rocket 4.3 19:58:47 10° SSW 20:05:11 71° W 20:11:36 10° N
ATLAS CENTAUR R/B 3.8 20:21:10 10° NNW 20:21:59 15° N 20:21:59 15° N
Cosmos 1943 3.7 20:22:58 10° NNW 20:27:09 49° N 20:27:09 49° N
Okean 2 Rocket 4.4 20:26:58 10° SW 20:31:02 37° WNW 20:35:09 10° N
SeaSat 1 4.0 20:32:54 24° SSW 20:34:45 32° WSW 20:39:09 10° NW
USA 215 3.8 20:37:21 38° NNE 20:39:34 53° NNW 20:45:51 10° WSW
USA 267 3.9 21:14:32 50° NW 21:14:32 50° NW 21:19:11 10° NW
CZ-4C R/B 3.6 21:17:50 10° NW 21:22:51 50° NW 21:22:51 50° NW
